Back to catalog

STARLINK-4200

AliveCommunicationsVLEO
NORAD 52876·PAYLOAD·🇺🇸 United States

Launched Jun 17, 2022 from Cape Canaveral Space Force Station

Loading…

Next Passes (next 24 hours)

TLE

FreshSource: CelesTrak SupGP

Epoch: Sep 14, 2026, 21:09 UTC

1 52876C 22062AY  26257.88173611 -.00030273  00000+0 -97333-3 0  2578
2 52876  53.1562 231.0309 0001210  95.1174 216.8098 15.31722543    19

Track STARLINK-4200 in real time with AllMySat

Download on the App Store